G0UBK Weather Reports


Display with metric or nautical units.
time (UTC)temp
F
wind
direction
speed
MPH
gust
MPH
rain 1hr
in
rain 24hr
in
rain mn
in
humidity
%
barometer
mb
20260502123050 60 99 0.0 5.0 0.00 0.00 0.00 72 1015.2
20260502121551 62 123 1.0 2.0 0.00 0.00 0.00 70 1015.3
20260502114553 61 86 1.0 4.0 0.00 0.00 0.00 71 1015.1
20260502113049 60 107 0.0 5.0 0.00 0.00 0.00 74 1015.2
20260502111553 59 122 1.0 3.0 0.00 0.00 0.00 76 1015.4
20260502110046 57 140 1.0 6.0 0.00 0.00 0.00 77 1015.3
20260502104554 57 353 2.0 6.0 0.00 0.00 0.00 75 1015.2
20260502103047 60 24 1.0 7.0 0.00 0.00 0.00 71 1015.2
20260502101551 61 94 1.0 6.0 0.00 0.00 0.00 72 1015.4
20260502080104 58 283 4.0 9.0 0.00 0.00 0.00 75 1015.7
20260502070055 57 149 3.0 7.0 0.00 0.00 0.00 75 1015.5
20260502064558 55 224 1.0 5.0 0.00 0.00 0.00 78 1015.6
20260502063052 54 245 2.0 7.0 0.00 0.00 0.00 79 1015.6
20260502061547 53 238 2.0 6.0 0.00 0.00 0.00 83 1015.7
20260502060050 52 278 2.0 7.0 0.00 0.00 0.00 83 1015.8
20260502054558 51 281 3.0 7.0 0.00 0.00 0.00 83 1015.6
20260502053048 51 274 3.0 9.0 0.00 0.00 0.00 84 1015.6
20260502051552 51 246 1.0 5.0 0.00 0.00 0.00 85 1015.7
20260502050051 51 207 1.0 6.0 0.00 0.00 0.00 85 1015.6
20260502044557 51 275 3.0 5.0 0.00 0.00 0.00 86 1015.7
20260502043053 51 295 1.0 4.0 0.00 0.00 0.00 88 1015.7
20260502041549 51 0 0.0 1.0 0.00 0.00 0.00 88 1015.8
20260502040057 51 0 0.0 0.0 0.00 0.00 0.00 87 1015.8
20260502034556 51 0 0.0 1.0 0.00 0.00 0.00 87 1015.9
20260502033054 51 0 0.0 0.0 0.00 0.00 0.00 86 1016.0
20260502031555 52 0 0.0 0.0 0.00 0.00 0.00 86 1015.9
20260502030053 52 0 0.0 1.0 0.00 0.00 0.00 86 1016.0
20260502024552 52 0 0.0 1.0 0.00 0.00 0.00 86 1016.0
20260502023054 52 0 0.0 1.0 0.00 0.00 0.00 85 1016.2
20260502021553 53 239 0.0 2.0 0.00 0.00 0.00 86 1016.5
20260502020106 53 0 0.0 0.0 0.00 0.00 0.00 86 1016.5
20260502014553 53 0 0.0 0.0 0.00 0.00 0.00 85 1016.6
20260502013047 53 0 0.0 1.0 0.00 0.00 0.00 85 1016.8
20260502011552 53 0 0.0 1.0 0.00 0.00 0.00 84 1016.8
20260502010055 52 0 0.0 1.0 0.00 0.00 0.00 84 1017.0
20260502004555 52 0 0.0 2.0 0.00 0.00 0.00 84 1017.0
20260502003059 52 0 0.0 0.0 0.00 0.00 0.00 83 1017.2
20260502001624 52 0 0.0 0.0 0.00 0.00 0.00 83 1017.3
20260502000048 53 0 0.0 1.0 0.00 0.00 0.00 82 1017.2
20260501234545 53 302 0.0 1.0 0.00 0.00 0.00 82 1017.2
20260501233054 53 0 0.0 1.0 0.00 0.00 0.00 82 1017.5
20260501231554 53 0 0.0 1.0 0.00 0.00 0.00 81 1017.6
20260501224559 53 285 1.0 4.0 0.00 0.00 0.00 80 1017.6
20260501223054 53 302 2.0 7.0 0.00 0.00 0.00 79 1017.5
20260501221551 53 286 1.0 3.0 0.00 0.00 0.00 79 1017.5
20260501220058 54 0 0.0 2.0 0.00 0.00 0.00 77 1017.5
20260501214556 56 0 0.0 2.0 0.00 0.00 0.00 75 1017.6
20260501213057 58 300 0.0 1.0 0.00 0.00 0.00 74 1017.5
20260501211551 60 325 2.0 6.0 0.00 0.00 0.00 72 1017.3
20260501210059 60 288 2.0 6.0 0.00 0.00 0.00 72 1017.4
20260501204552 59 0 0.0 0.0 0.00 0.00 0.00 72 1017.2
20260501203047 59 0 0.0 2.0 0.00 0.00 0.00 72 1017.4
20260501201549 58 302 0.0 3.0 0.00 0.00 0.00 73 1017.3
20260501200048 63 301 0.0 1.0 0.00 0.00 0.00 65 1017.2
20260501194547 65 243 0.0 3.0 0.00 0.00 0.00 58 1016.9
20260501193053 66 115 0.0 4.0 0.00 0.00 0.00 57 1016.9
20260501191552 66 226 1.0 4.0 0.00 0.00 0.00 57 1016.8
20260501190048 65 212 1.0 5.0 0.00 0.00 0.00 58 1016.8
20260501184550 67 120 0.0 6.0 0.00 0.00 0.00 56 1016.8
20260501183054 67 154 1.0 3.0 0.00 0.00 0.00 57 1016.8
20260501181551 66 121 0.0 5.0 0.00 0.00 0.00 59 1017.1
20260501180055 67 167 3.0 6.0 0.00 0.00 0.00 58 1017.2
20260501174554 68 98 1.0 5.0 0.00 0.00 0.00 57 1017.2
20260501173046 69 129 2.0 6.0 0.00 0.00 0.00 55 1017.3
20260501171550 69 262 2.0 9.0 0.00 0.00 0.00 55 1017.3
20260501170054 69 180 3.0 8.0 0.00 0.00 0.00 55 1017.2
20260501164556 69 127 2.0 9.0 0.00 0.00 0.00 54 1017.3
20260501163052 69 141 4.0 11.0 0.00 0.00 0.00 52 1017.2
20260501161600 69 164 4.0 9.0 0.00 0.00 0.00 51 1017.3
20260501160051 70 113 3.0 10.0 0.00 0.00 0.00 50 1017.5
20260501154549 69 134 1.0 8.0 0.00 0.00 0.00 51 1017.7
20260501153105 67 124 4.0 9.0 0.00 0.00 0.00 53 1017.8
20260501151557 67 49 4.0 9.0 0.00 0.00 0.00 53 1017.9
20260501150046 68 122 2.0 7.0 0.00 0.00 0.00 53 1017.9